Tracking 30115 objects as of 16-Jan-2025
HD Live streaming from Space Station
objects crossing your sky now

DELTA 1 R/B(2)

Track DELTA 1 R/B(2) now!


NORAD ID: 1318
Int'l Code: 1965-028B
Perigee: 1,437.4 km
Apogee: 37,040.6 km
Inclination: 18.2 °
Period: 679.8 minutes
Semi major axis: 25609 km
RCS: 0.7392 m2 (medium)
Launch date: April 6, 1965
Source: United States (US)
Launch site: AIR FORCE EASTERN TEST RANGE (AFETR)

Note: This is a ROCKET BODY
Your satellite tracking list
Your tracking list is empty




NASA's NSSDC Master Catalog

Two Line Element Set (TLE):
1  1318U 65028B   25015.09050737 -.00000204  00000-0  00000+0 0  9994
2  1318  18.1575  46.7727 6951035 249.0977  28.4838  2.11830735247581
Source of the keplerian elements: AFSPC